FW8254 Weather Reports


time (UTC)temp
F
wind
direction
speed
knots
gust
knots
rain 1hr
in
rain 24hr
in
rain mn
in
humidity
%
barometer
mb
20260903125126 78 15 0.9 0.9 0.00 0.00 0.00 85 1012.5
20260903124625 78 22 0.0 0.0 0.00 0.00 0.00 85 1012.4
20260903124119 78 19 0.0 0.9 0.00 0.00 0.00 86 1012.3
20260903123614 77 23 0.0 0.9 0.00 0.00 0.00 87 1012.5
20260903123112 77 339 0.0 0.9 0.00 0.00 0.00 88 1012.4
20260903122607 77 338 0.0 0.0 0.00 0.00 0.00 89 1012.3
20260903122106 77 341 0.0 0.0 0.00 0.00 0.00 89 1012.4
20260903121601 77 341 0.0 0.0 0.00 0.00 0.00 90 1012.5
20260903121057 77 340 0.0 0.0 0.00 0.00 0.00 90 1012.2
20260903120556 77 341 0.0 0.0 0.00 0.00 0.00 90 1012.3
20260903120050 76 340 0.0 0.0 0.00 0.00 0.00 90 1012.3
20260903115548 76 341 0.0 0.0 0.00 0.00 0.00 90 1012.4
20260903115044 76 341 0.0 0.0 0.00 0.00 0.00 90 1012.3
20260903114539 76 341 0.0 0.0 0.00 0.00 0.00 90 1012.3
20260903114035 76 341 0.0 0.0 0.00 0.00 0.00 90 1012.2
20260903113530 76 341 0.0 0.0 0.00 0.00 0.00 90 1012.3
20260903113026 76 341 0.0 0.0 0.00 0.00 0.00 90 1012.0
20260903112521 76 340 0.0 0.0 0.00 0.00 0.00 90 1011.9
20260903112022 76 341 0.0 0.0 0.00 0.00 0.00 90 1012.2
20260903111520 76 341 0.0 0.0 0.00 0.00 0.00 90 1012.1
20260903111016 76 341 0.0 0.0 0.00 0.00 0.00 90 1012.0
20260903110513 76 341 0.0 0.0 0.00 0.00 0.00 89 1011.9
20260903110007 76 341 0.0 0.0 0.00 0.00 0.00 89 1011.8
20260903105502 77 341 0.0 0.0 0.00 0.00 0.00 89 1011.8
20260903104956 77 341 0.0 0.0 0.00 0.00 0.00 89 1011.6
20260903104455 77 341 0.0 0.0 0.00 0.00 0.00 89 1011.8
20260903103952 77 341 0.0 0.0 0.00 0.00 0.00 89 1011.6
20260903103448 77 341 0.0 0.0 0.00 0.00 0.00 89 1011.7
20260903102943 76 341 0.0 0.0 0.00 0.00 0.00 88 1011.6
20260903102439 76 341 0.0 0.0 0.00 0.00 0.00 88 1011.7
20260903101937 76 341 0.0 0.0 0.00 0.00 0.00 88 1011.5
20260903101432 77 341 0.0 0.0 0.00 0.00 0.00 88 1011.6
20260903100928 77 341 0.0 0.0 0.00 0.00 0.00 88 1011.3
20260903100423 76 341 0.0 0.0 0.00 0.00 0.00 87 1011.3
20260903095920 76 341 0.0 0.0 0.00 0.00 0.00 87 1011.4
20260903095415 77 341 0.0 0.0 0.00 0.00 0.00 87 1011.2
20260903094910 77 341 0.0 0.0 0.00 0.00 0.00 87 1011.3
20260903094409 76 341 0.0 0.0 0.00 0.00 0.00 87 1011.4
20260903093906 76 341 0.0 0.0 0.00 0.00 0.00 87 1011.3
20260903093400 76 341 0.0 0.0 0.00 0.00 0.00 87 1011.4
20260903092856 77 341 0.0 0.0 0.00 0.00 0.00 87 1011.4
20260903092355 77 341 0.0 0.0 0.00 0.00 0.00 87 1011.4
20260903091854 77 341 0.0 0.0 0.00 0.00 0.00 87 1011.5
20260903091353 77 341 0.0 0.0 0.00 0.00 0.00 86 1011.5
20260903090848 77 341 0.0 0.0 0.00 0.00 0.00 86 1011.3
20260903090344 77 341 0.0 0.0 0.00 0.00 0.00 86 1011.4
20260903085842 77 341 0.0 0.0 0.00 0.00 0.00 86 1011.2
20260903085336 77 341 0.0 0.0 0.00 0.00 0.00 85 1011.2
20260903084835 77 341 0.0 0.0 0.00 0.00 0.00 85 1011.2
20260903084334 77 341 0.0 0.0 0.00 0.00 0.00 85 1011.2
20260903083830 77 341 0.0 0.0 0.00 0.00 0.00 85 1011.4
20260903083325 77 341 0.0 0.0 0.00 0.00 0.00 85 1011.2
20260903082824 78 341 0.0 0.0 0.00 0.00 0.00 85 1010.9
20260903082319 78 341 0.0 0.0 0.00 0.00 0.00 85 1011.3
20260903081815 78 341 0.0 0.0 0.00 0.00 0.00 84 1011.1
20260903081310 78 341 0.0 0.0 0.00 0.00 0.00 84 1011.0
20260903080806 78 344 0.0 0.0 0.00 0.00 0.00 84 1010.7
20260903080304 78 344 0.0 0.0 0.00 0.00 0.00 84 1010.7
20260903075803 78 345 0.0 0.0 0.00 0.00 0.00 84 1010.9
20260903075258 79 345 0.0 0.0 0.00 0.00 0.00 84 1010.9
20260903074757 79 337 0.9 0.9 0.00 0.00 0.00 84 1010.6
20260903074252 79 340 0.0 0.0 0.00 0.00 0.00 83 1010.6
20260903073747 79 335 0.9 1.7 0.00 0.00 0.00 84 1010.9
20260903073243 79 339 0.0 0.9 0.00 0.00 0.00 83 1010.8
20260903072739 79 338 0.9 0.9 0.00 0.00 0.00 83 1010.7
20260903072235 79 331 0.9 1.7 0.00 0.00 0.00 83 1011.0
20260903071731 79 338 0.0 0.9 0.00 0.00 0.00 83 1010.8
20260903071227 79 340 0.0 0.0 0.00 0.00 0.00 82 1010.6
20260903070726 79 340 0.0 0.0 0.00 0.00 0.00 82 1010.7
20260903070222 79 341 0.0 0.0 0.00 0.00 0.00 82 1010.9
20260903065717 79 341 0.0 0.0 0.00 0.00 0.00 82 1010.7
20260903065216 79 341 0.0 0.0 0.00 0.00 0.00 82 1010.5
20260903064716 79 342 0.0 0.0 0.00 0.00 0.00 82 1010.6
20260903064211 79 342 0.0 0.0 0.00 0.00 0.00 81 1010.5
20260903063707 79 342 0.0 0.0 0.00 0.00 0.00 81 1010.6
20260903063201 79 342 0.0 0.0 0.00 0.00 0.00 81 1010.7
20260903062657 80 342 0.0 0.0 0.00 0.00 0.00 80 1010.7
20260903062152 80 341 0.0 0.0 0.00 0.00 0.00 80 1010.6
20260903061647 80 341 0.0 0.0 0.00 0.00 0.00 80 1010.4
20260903061146 80 341 0.0 0.0 0.00 0.00 0.00 79 1010.7
20260903060642 80 338 0.0 0.9 0.00 0.00 0.00 79 1010.5
20260903060137 80 340 0.0 0.0 0.00 0.00 0.00 79 1010.5
20260903055635 80 340 0.0 0.9 0.00 0.00 0.00 79 1010.6
20260903055133 81 338 0.0 0.9 0.00 0.00 0.00 79 1010.4
20260903054628 80 333 0.9 1.7 0.00 0.00 0.00 80 1010.5
20260903054124 80 344 0.0 0.0 0.00 0.00 0.00 80 1010.6
20260903053620 80 346 0.0 0.0 0.00 0.00 0.00 81 1010.9
20260903053115 80 346 0.0 0.0 0.00 0.00 0.00 81 1011.1
20260903052611 80 346 0.0 0.0 0.00 0.00 0.00 82 1011.4
20260903052106 80 346 0.0 0.9 0.00 0.00 0.00 82 1011.1
20260903051601 79 356 0.0 0.0 0.00 0.00 0.00 83 1011.1
20260903051056 79 356 0.0 0.0 0.00 0.00 0.00 85 1011.3
20260903050555 79 356 0.0 0.0 0.00 0.00 0.00 86 1011.1
20260903050051 80 356 0.0 0.9 0.00 0.00 0.00 87 1011.2
20260903045550 80 356 0.0 0.0 0.00 0.00 0.00 87 1011.2
20260903045047 80 357 0.0 0.0 0.00 0.00 0.00 87 1011.0
20260903044543 80 356 0.0 0.0 0.00 0.00 0.00 87 1011.1
20260903044038 80 356 0.0 0.0 0.00 0.00 0.00 87 1011.2
20260903043534 80 356 0.0 0.0 0.00 0.00 0.00 87 1011.1
20260903043033 81 356 0.0 0.0 0.00 0.00 0.00 87 1011.0
20260903042528 81 356 0.0 0.0 0.00 0.00 0.00 86 1011.0
20260903042024 81 357 0.0 0.9 0.00 0.00 0.00 86 1010.8
20260903041520 81 355 0.0 0.9 0.00 0.00 0.00 86 1011.1
20260903041015 81 351 0.0 0.9 0.00 0.00 0.00 86 1010.9
20260903040514 81 349 0.0 0.0 0.00 0.00 0.00 85 1011.0
20260903040011 82 348 0.0 0.0 0.00 0.00 0.00 85 1011.1
20260903035506 82 348 0.0 0.0 0.00 0.00 0.00 84 1011.0
20260903035001 82 348 0.0 0.0 0.00 0.00 0.00 84 1011.3
20260903034456 82 348 0.0 0.0 0.00 0.00 0.00 83 1011.0
20260903033956 82 347 0.0 0.0 0.00 0.00 0.00 82 1011.3
20260903033451 83 347 0.0 0.0 0.00 0.00 0.00 81 1011.3
20260903032946 83 348 0.0 0.0 0.00 0.00 0.00 80 1011.4
20260903032442 82 348 0.0 0.9 0.00 0.00 0.00 78 1011.4
20260903031937 82 352 0.0 0.0 0.00 0.00 0.00 77 1011.4
20260903031431 82 352 0.0 0.0 0.00 0.00 0.00 77 1011.3
20260903030926 82 352 0.0 0.0 0.00 0.00 0.00 78 1011.4
20260903030422 82 352 0.0 0.0 0.00 0.00 0.00 79 1011.4
20260903025918 82 352 0.0 0.0 0.00 0.00 0.00 79 1011.5
20260903025414 82 352 0.0 0.0 0.00 0.00 0.00 79 1011.2
20260903024908 82 352 0.0 0.0 0.00 0.00 0.00 79 1011.6
20260903024402 82 352 0.0 0.0 0.00 0.00 0.00 79 1011.4
20260903023857 82 352 0.0 0.0 0.00 0.00 0.00 78 1011.2
20260903023353 82 353 0.0 0.0 0.00 0.00 0.00 78 1011.5
20260903022848 82 351 0.0 0.0 0.00 0.00 0.00 78 1011.3
20260903022347 82 352 0.0 0.9 0.00 0.00 0.00 77 1011.3
20260903021846 82 346 0.0 0.0 0.00 0.00 0.00 77 1011.3
20260903021342 83 346 0.0 0.9 0.00 0.00 0.00 77 1011.6
20260903020841 83 352 0.0 0.0 0.00 0.00 0.00 77 1011.5
20260903020337 83 353 0.0 0.0 0.00 0.00 0.00 78 1011.6
20260903015831 83 355 0.0 1.7 0.00 0.00 0.00 78 1011.4
20260903015327 85 351 0.9 2.6 0.00 0.00 0.00 79 1011.5
20260903014822 86 358 0.9 1.7 0.00 0.00 0.00 77 1011.4
20260903014322 86 352 0.0 0.0 0.00 0.00 0.00 73 1011.2
20260903013817 86 347 0.0 0.9 0.00 0.00 0.00 71 1011.4
20260903013316 86 352 0.0 0.9 0.00 0.00 0.00 71 1011.1
20260903012815 86 348 0.0 0.0 0.00 0.00 0.00 71 1011.0
20260903012310 86 351 0.0 0.9 0.00 0.00 0.00 70 1010.9
20260903011809 85 351 0.0 0.9 0.00 0.00 0.00 73 1011.1
20260903011309 85 350 0.0 4.3 0.00 0.00 0.00 77 1011.1
20260903010804 86 10 1.7 1.7 0.00 0.00 0.00 81 1010.8
20260903010300 86 344 0.0 0.0 0.00 0.00 0.00 80 1010.4
20260903005758 86 347 0.0 0.0 0.00 0.00 0.00 80 1010.6
20260903005253 86 343 0.0 0.9 0.00 0.00 0.00 79 1010.5
20260903004749 86 338 0.0 0.0 0.00 0.00 0.00 79 1010.5
20260903004244 86 338 0.0 0.0 0.00 0.00 0.00 78 1010.4
20260903003740 87 338 0.0 0.0 0.00 0.00 0.00 77 1010.5
20260903003234 87 338 0.0 0.0 0.00 0.00 0.00 76 1010.3
20260903002729 87 337 0.0 0.0 0.00 0.00 0.00 74 1010.1
20260903002223 87 337 0.0 0.9 0.00 0.00 0.00 73 1010.2
20260903001719 87 336 0.0 0.0 0.00 0.00 0.00 73 1010.2
20260903001219 87 339 0.0 0.0 0.00 0.00 0.00 73 1009.9
20260903000714 88 340 0.0 0.0 0.00 0.00 0.00 72 1009.8
20260903000213 87 22 0.0 0.0 0.00 0.00 0.00 71 1010.0
20260902235712 87 22 0.0 0.0 0.00 0.00 0.00 70 1009.9
20260902235208 88 22 0.0 0.0 0.00 0.00 0.00 73 1009.8
20260902234707 89 22 0.0 0.0 0.00 0.00 0.00 73 1010.1
20260902234206 89 22 0.0 0.0 0.00 0.00 0.00 72 1010.0
20260902233701 89 22 0.0 0.0 0.00 0.00 0.00 71 1009.8
20260902233201 90 22 0.0 0.0 0.00 0.00 0.00 71 1009.9
20260902232659 90 22 0.0 0.0 0.00 0.00 0.00 70 1010.0
20260902232159 91 21 0.0 0.0 0.00 0.00 0.00 69 1009.8
20260902231653 91 20 0.0 0.0 0.00 0.00 0.00 68 1009.9
20260902231148 91 19 0.9 0.9 0.00 0.00 0.00 69 1010.2
20260902230643 91 20 0.0 0.0 0.00 0.00 0.00 61 1010.1
20260902230142 92 20 0.0 0.0 0.00 0.00 0.00 61 1010.1
20260902225637 92 20 0.0 0.0 0.00 0.00 0.00 61 1009.8
20260902225137 93 20 0.0 0.0 0.00 0.00 0.00 61 1010.0
20260902224635 93 20 0.0 0.0 0.00 0.00 0.00 59 1010.0
20260902224131 94 20 0.0 0.0 0.00 0.00 0.00 57 1009.7
20260902223628 94 20 0.0 0.0 0.00 0.00 0.00 57 1010.1
20260902223127 94 20 0.0 0.0 0.00 0.00 0.00 56 1009.8
20260902222626 94 20 0.0 0.0 0.00 0.00 0.00 57 1009.9
20260902222125 94 20 0.0 0.0 0.00 0.00 0.00 56 1010.1
20260902221619 94 20 0.0 0.0 0.00 0.00 0.00 56 1010.0
20260902221114 95 20 0.0 0.0 0.00 0.00 0.00 55 1010.0
20260902220610 95 20 0.0 0.0 0.00 0.00 0.00 54 1009.9
20260902220104 95 20 0.9 1.7 0.00 0.00 0.00 53 1009.9
20260902215601 95 23 0.0 0.0 0.00 0.00 0.00 53 1009.9
20260902215056 95 23 0.0 0.9 0.00 0.00 0.00 52 1010.2
20260902214555 95 25 0.0 0.9 0.00 0.00 0.00 52 1010.0
20260902214055 95 21 0.9 1.7 0.00 0.00 0.00 50 1010.1
20260902213550 96 14 1.7 1.7 0.00 0.00 0.00 53 1009.9
20260902213049 96 33 0.0 0.9 0.00 0.00 0.00 50 1010.2
20260902212545 96 4 0.9 1.7 0.00 0.00 0.00 52 1010.2
20260902212041 95 35 0.0 0.9 0.00 0.00 0.00 50 1009.9
20260902211537 95 7 0.9 0.9 0.00 0.00 0.00 51 1010.0
20260902211032 96 36 0.0 0.9 0.00 0.00 0.00 52 1010.3
20260902210532 96 39 0.0 0.9 0.00 0.00 0.00 51 1010.4
20260902210026 95 33 0.0 0.9 0.00 0.00 0.00 50 1010.1
20260902205520 95 17 0.0 1.7 0.00 0.00 0.00 51 1010.2
20260902205016 95 16 0.0 0.9 0.00 0.00 0.00 52 1010.2
20260902204515 96 32 0.0 0.0 0.00 0.00 0.00 50 1010.3
20260902204010 95 19 0.9 1.7 0.00 0.00 0.00 51 1010.2
20260902203506 95 29 0.0 0.9 0.00 0.00 0.00 51 1010.4
20260902203005 95 1 0.9 1.7 0.00 0.00 0.00 50 1010.5
20260902202501 95 10 0.9 0.9 0.00 0.00 0.00 50 1010.5
20260902201957 96 17 0.0 1.7 0.00 0.00 0.00 49 1010.7
20260902201458 97 17 0.9 0.9 0.00 0.00 0.00 48 1010.7
20260902200958 96 34 0.0 0.9 0.00 0.00 0.00 49 1010.8
20260902200453 96 38 0.0 0.9 0.00 0.00 0.00 51 1010.9
20260902195948 97 14 1.7 1.7 0.00 0.00 0.00 49 1010.6
20260902195438 97 32 0.0 0.0 0.00 0.00 0.00 47 1010.9
20260902194932 96 29 0.0 1.7 0.00 0.00 0.00 50 1010.9
20260902194432 98 35 0.0 0.9 0.00 0.00 0.00 49 1010.8
20260902193927 98 26 0.0 0.9 0.00 0.00 0.00 49 1011.1
20260902193423 98 21 0.0 0.9 0.00 0.00 0.00 49 1011.0
20260902192921 97 24 0.0 1.7 0.00 0.00 0.00 51 1011.1
20260902192420 98 34 0.0 1.7 0.00 0.00 0.00 50 1011.1
20260902191919 98 28 0.9 1.7 0.00 0.00 0.00 49 1011.2
20260902191415 97 23 0.0 0.0 0.00 0.00 0.00 51 1011.3
20260902190910 96 17 1.7 1.7 0.00 0.00 0.00 51 1011.3
20260902190405 97 32 2.6 5.2 0.00 0.00 0.00 50 1011.4
20260902185901 96 28 0.0 1.7 0.00 0.00 0.00 51 1011.2
20260902185356 96 51 1.7 2.6 0.00 0.00 0.00 51 1011.4
20260902184851 96 21 0.0 0.9 0.00 0.00 0.00 52 1011.6
20260902184347 95 25 0.0 1.7 0.00 0.00 0.00 53 1011.6
20260902183842 95 33 0.0 0.9 0.00 0.00 0.00 53 1011.8
20260902183339 95 33 0.0 1.7 0.00 0.00 0.00 53 1011.7
20260902182834 94 21 0.9 1.7 0.00 0.00 0.00 57 1011.8
20260902182331 93 31 0.9 0.9 0.00 0.00 0.00 57 1011.9
20260902181827 93 33 0.9 1.7 0.00 0.00 0.00 57 1012.0
20260902181322 93 22 0.0 0.0 0.00 0.00 0.00 57 1011.8
20260902180821 93 21 0.0 0.9 0.00 0.00 0.00 55 1011.6
20260902180317 93 9 0.0 1.7 0.00 0.00 0.00 56 1011.9
20260902175812 93 11 0.0 1.7 0.00 0.00 0.00 56 1011.9
20260902175308 93 14 0.0 0.0 0.00 0.00 0.00 56 1012.0
20260902174803 93 14 0.0 0.0 0.00 0.00 0.00 57 1012.0
20260902174300 93 13 0.0 1.7 0.00 0.00 0.00 56 1011.9
20260902173755 92 351 4.3 6.1 0.00 0.00 0.00 55 1012.2
20260902173249 92 330 2.6 2.6 0.00 0.00 0.00 54 1012.2
20260902172744 92 5 1.7 2.6 0.00 0.00 0.00 55 1012.2
20260902172243 92 10 0.9 2.6 0.00 0.00 0.00 57 1012.3
20260902171738 92 354 1.7 2.6 0.00 0.00 0.00 57 1012.3
20260902171234 91 341 2.6 2.6 0.00 0.00 0.00 59 1012.3
20260902170730 91 349 1.7 2.6 0.00 0.00 0.00 60 1012.5
20260902170225 91 8 0.9 1.7 0.00 0.00 0.00 60 1012.6
20260902165720 91 349 1.7 4.3 0.00 0.00 0.00 58 1012.4
20260902165215 91 336 1.7 2.6 0.00 0.00 0.00 59 1012.5
20260902164714 91 353 1.7 2.6 0.00 0.00 0.00 59 1012.7
20260902164209 91 35 0.0 1.7 0.00 0.00 0.00 60 1012.5
20260902163704 90 23 0.9 1.7 0.00 0.00 0.00 61 1012.7
20260902163204 90 11 1.7 1.7 0.00 0.00 0.00 63 1012.7
20260902162702 90 15 0.9 1.7 0.00 0.00 0.00 64 1012.5
20260902162156 90 300 2.6 4.3 0.00 0.00 0.00 62 1012.7
20260902161652 90 357 1.7 2.6 0.00 0.00 0.00 64 1012.9
20260902161147 89 344 1.7 1.7 0.00 0.00 0.00 63 1012.8
20260902160644 89 347 2.6 4.3 0.00 0.00 0.00 62 1012.9
20260902160138 89 1 0.9 1.7 0.00 0.00 0.00 66 1012.9
20260902155637 89 10 0.9 1.7 0.00 0.00 0.00 66 1012.9
20260902155136 88 0 1.7 1.7 0.00 0.00 0.00 66 1012.8
20260902154631 88 13 0.0 0.9 0.00 0.00 0.00 68 1012.9
20260902154126 88 11 0.9 0.9 0.00 0.00 0.00 68 1013.0
20260902153625 87 353 0.9 1.7 0.00 0.00 0.00 68 1013.1
20260902153120 87 9 0.9 1.7 0.00 0.00 0.00 69 1013.1
20260902152616 87 14 0.9 1.7 0.00 0.00 0.00 70 1013.1
20260902152112 87 7 1.7 1.7 0.00 0.00 0.00 70 1013.2
20260902151608 87 353 0.9 1.7 0.00 0.00 0.00 69 1013.1
20260902151107 87 335 1.7 2.6 0.00 0.00 0.00 70 1013.0
20260902150603 86 343 2.6 2.6 0.00 0.00 0.00 70 1013.0
20260902150058 86 326 2.6 2.6 0.00 0.00 0.00 68 1013.1
20260902145558 86 337 2.6 4.3 0.00 0.00 0.00 69 1013.1
20260902145057 86 359 0.9 2.6 0.00 0.00 0.00 70 1013.1
20260902144555 86 339 1.7 2.6 0.00 0.00 0.00 72 1013.2
20260902144055 86 0 0.9 1.7 0.00 0.00 0.00 71 1012.9
20260902143550 86 348 1.7 2.6 0.00 0.00 0.00 71 1013.0
20260902143045 85 352 2.6 2.6 0.00 0.00 0.00 71 1012.9
20260902142543 85 348 0.9 1.7 0.00 0.00 0.00 72 1013.1
20260902142036 84 3 1.7 1.7 0.00 0.00 0.00 73 1012.9
20260902141536 84 14 0.0 1.7 0.00 0.00 0.00 74 1012.9
20260902141031 84 319 2.6 2.6 0.00 0.00 0.00 75 1013.0
20260902140526 83 354 0.0 1.7 0.00 0.00 0.00 77 1012.9
20260902140021 82 15 0.0 0.9 0.00 0.00 0.00 79 1013.1
20260902135520 82 15 0.0 0.0 0.00 0.00 0.00 80 1012.9
20260902135015 82 15 0.0 0.0 0.00 0.00 0.00 80 1012.9
20260902134511 81 15 0.0 0.0 0.00 0.00 0.00 81 1013.1
20260902134006 81 15 0.0 0.0 0.00 0.00 0.00 81 1012.9
20260902133501 81 15 0.0 0.9 0.00 0.00 0.00 82 1013.3
20260902132955 80 15 0.0 0.0 0.00 0.00 0.00 82 1013.2
20260902132450 80 15 0.0 0.0 0.00 0.00 0.00 83 1013.1
20260902131945 80 15 0.0 0.9 0.00 0.00 0.00 83 1013.1
20260902131442 79 14 0.0 0.0 0.00 0.00 0.00 84 1013.1
20260902130941 79 17 0.0 0.9 0.00 0.00 0.00 84 1013.1
20260902130437 79 19 0.0 0.0 0.00 0.00 0.00 84 1013.1
20260902125932 79 18 0.9 0.9 0.00 0.00 0.00 84 1013.0
20260902125428 78 19 0.9 0.9 0.00 0.00 0.00 84 1013.2